| time (UTC) | temp C | wind direction | speed KPH | gust KPH | rain 1hr cm | rain 24hr cm | rain mn cm | humidity % | barometer mb |
| 20260507192559 | 30 | 252 | 12.9 | 25.7 | 0.00 | 0.00 | 0.00 | 73 | 996.1 |
| 20260507192100 | 30 | 225 | 12.9 | 25.7 | 0.00 | 0.00 | 0.00 | 72 | 996.2 |
| 20260507191617 | 30 | 224 | 14.5 | 22.5 | 0.00 | 0.00 | 0.00 | 72 | 996.3 |
| 20260507191059 | 30 | 274 | 14.5 | 22.5 | 0.00 | 0.00 | 0.00 | 71 | 996.3 |
| 20260507190600 | 30 | 232 | 12.9 | 24.1 | 0.00 | 0.00 | 0.00 | 71 | 996.5 |
| 20260507190100 | 30 | 303 | 14.5 | 19.3 | 0.00 | 0.00 | 0.00 | 72 | 996.7 |
| 20260507185559 | 30 | 178 | 12.9 | 27.4 | 0.00 | 0.00 | 0.00 | 72 | 996.8 |
| 20260507185059 | 30 | 199 | 12.9 | 27.4 | 0.00 | 0.00 | 0.00 | 71 | 996.8 |
| 20260507184608 | 30 | 221 | 9.7 | 27.4 | 0.00 | 0.00 | 0.00 | 72 | 996.8 |
| 20260507184100 | 30 | 306 | 12.9 | 27.4 | 0.00 | 0.00 | 0.00 | 72 | 996.9 |
| 20260507183559 | 30 | 250 | 14.5 | 19.3 | 0.00 | 0.00 | 0.00 | 72 | 997.0 |
| 20260507183104 | 30 | 225 | 12.9 | 24.1 | 0.00 | 0.00 | 0.00 | 71 | 997.1 |
| 20260507182603 | 30 | 227 | 14.5 | 24.1 | 0.00 | 0.00 | 0.00 | 71 | 997.1 |
| 20260507182100 | 30 | 242 | 9.7 | 20.9 | 0.00 | 0.00 | 0.00 | 71 | 997.1 |
| 20260507181600 | 30 | 269 | 12.9 | 20.9 | 0.00 | 0.00 | 0.00 | 70 | 997.1 |
| 20260507181100 | 31 | 297 | 8.0 | 19.3 | 0.00 | 0.00 | 0.00 | 70 | 997.1 |
| 20260507180600 | 31 | 254 | 8.0 | 20.9 | 0.00 | 0.00 | 0.00 | 71 | 997.0 |
| 20260507175600 | 30 | 238 | 9.7 | 20.9 | 0.00 | 0.00 | 0.00 | 71 | 997.2 |
| 20260507175100 | 30 | 225 | 9.7 | 20.9 | 0.00 | 0.00 | 0.00 | 72 | 997.3 |
| 20260507174600 | 30 | 279 | 9.7 | 19.3 | 0.00 | 0.00 | 0.00 | 71 | 997.4 |
| 20260507174103 | 31 | 213 | 8.0 | 19.3 | 0.00 | 0.00 | 0.00 | 70 | 997.4 |
| 20260507173600 | 31 | 273 | 4.8 | 16.1 | 0.00 | 0.00 | 0.00 | 72 | 997.4 |
| 20260507173100 | 30 | 271 | 8.0 | 16.1 | 0.00 | 0.00 | 0.00 | 71 | 997.6 |
| 20260507172600 | 30 | 242 | 6.4 | 16.1 | 0.00 | 0.00 | 0.00 | 71 | 997.6 |
| 20260507172101 | 30 | 219 | 8.0 | 14.5 | 0.00 | 0.00 | 0.00 | 70 | 997.5 |
| 20260507171604 | 31 | 280 | 8.0 | 19.3 | 0.00 | 0.00 | 0.00 | 70 | 997.5 |
| 20260507171100 | 30 | 322 | 4.8 | 19.3 | 0.00 | 0.00 | 0.00 | 70 | 997.7 |
| 20260507170600 | 30 | 273 | 4.8 | 16.1 | 0.00 | 0.00 | 0.00 | 71 | 997.8 |
| 20260507165559 | 31 | 259 | 8.0 | 16.1 | 0.00 | 0.00 | 0.00 | 67 | 997.8 |
| 20260507165059 | 32 | 247 | 6.4 | 11.3 | 0.00 | 0.00 | 0.00 | 64 | 997.9 |
| 20260507164633 | 32 | 171 | 0.0 | 3.2 | 0.00 | 0.00 | 0.00 | 58 | 998.0 |
| 20260507164059 | 31 | 306 | 0.0 | 3.2 | 0.00 | 0.00 | 0.00 | 58 | 997.9 |
| 20260507163600 | 31 | 355 | 0.0 | 3.2 | 0.00 | 0.00 | 0.00 | 59 | 998.1 |
| 20260507163101 | 31 | 63 | 0.0 | 3.2 | 0.00 | 0.00 | 0.00 | 60 | 998.3 |
| 20260507162559 | 31 | 61 | 0.0 | 3.2 | 0.00 | 0.00 | 0.00 | 62 | 998.3 |
| 20260507162100 | 31 | 287 | 0.0 | 3.2 | 0.00 | 0.00 | 0.00 | 61 | 998.3 |
| 20260507161607 | 31 | 22 | 0.0 | 3.2 | 0.00 | 0.00 | 0.00 | 62 | 998.2 |
| 20260507161059 | 31 | 89 | 0.0 | 4.8 | 0.00 | 0.00 | 0.00 | 63 | 998.3 |
| 20260507160559 | 31 | 80 | 0.0 | 4.8 | 0.00 | 0.00 | 0.00 | 65 | 998.3 |
| 20260507160100 | 30 | 118 | 1.6 | 11.3 | 0.00 | 0.00 | 0.00 | 64 | 998.6 |
| 20260507155559 | 30 | 121 | 0.0 | 11.3 | 0.00 | 0.00 | 0.00 | 64 | 998.5 |
| 20260507155100 | 30 | 99 | 0.0 | 3.2 | 0.00 | 0.00 | 0.00 | 65 | 998.6 |
| 20260507154600 | 30 | 120 | 0.0 | 3.2 | 0.00 | 0.00 | 0.00 | 65 | 998.5 |
| 20260507154059 | 30 | 164 | 0.0 | 6.4 | 0.00 | 0.00 | 0.00 | 65 | 998.4 |
| 20260507153559 | 30 | 108 | 0.0 | 6.4 | 0.00 | 0.00 | 0.00 | 65 | 998.6 |
| 20260507153059 | 30 | 90 | 0.0 | 4.8 | 0.00 | 0.00 | 0.00 | 65 | 998.7 |
| 20260507152600 | 30 | 89 | 0.0 | 4.8 | 0.00 | 0.00 | 0.00 | 67 | 998.6 |
| 20260507152103 | 30 | 136 | 1.6 | 4.8 | 0.00 | 0.00 | 0.00 | 68 | 998.7 |
| 20260507151604 | 30 | 64 | 0.0 | 3.2 | 0.00 | 0.00 | 0.00 | 68 | 998.7 |
| 20260507151059 | 29 | 53 | 0.0 | 8.0 | 0.00 | 0.00 | 0.00 | 69 | 998.8 |
| 20260507150559 | 29 | 57 | 0.0 | 8.0 | 0.00 | 0.00 | 0.00 | 69 | 999.0 |
| 20260507150100 | 29 | 78 | 0.0 | 3.2 | 0.00 | 0.00 | 0.00 | 70 | 998.8 |
| 20260507150001 | 29 | 51 | 0.0 | 3.2 | 0.00 | 0.00 | 0.00 | 70 | 998.9 |
| 20260507145602 | 28 | 49 | 0.0 | 3.2 | 0.00 | 0.00 | 0.00 | 70 | 998.9 |
| 20260507145059 | 28 | 65 | 1.6 | 4.8 | 0.00 | 0.00 | 0.00 | 71 | 999.2 |
| 20260507144604 | 28 | 55 | 1.6 | 6.4 | 0.00 | 0.00 | 0.00 | 71 | 999.2 |
| 20260507144101 | 28 | 57 | 1.6 | 6.4 | 0.00 | 0.00 | 0.00 | 71 | 999.3 |
| 20260507143559 | 28 | 78 | 1.6 | 6.4 | 0.00 | 0.00 | 0.00 | 72 | 999.1 |
| 20260507143111 | 28 | 57 | 1.6 | 6.4 | 0.00 | 0.00 | 0.00 | 72 | 999.0 |
| 20260507142600 | 28 | 71 | 0.0 | 3.2 | 0.00 | 0.00 | 0.00 | 73 | 999.0 |
| 20260507142059 | 28 | 56 | 0.0 | 4.8 | 0.00 | 0.00 | 0.00 | 75 | 998.8 |
| 20260507141623 | 27 | 74 | 1.6 | 4.8 | 0.00 | 0.00 | 0.00 | 75 | 998.9 |
| 20260507141100 | 27 | 63 | 0.0 | 4.8 | 0.00 | 0.00 | 0.00 | 77 | 998.9 |
| 20260507140602 | 27 | 58 | 0.0 | 4.8 | 0.00 | 0.00 | 0.00 | 77 | 998.9 |
| 20260507140059 | 27 | 73 | 0.0 | 3.2 | 0.00 | 0.00 | 0.00 | 78 | 998.8 |
| 20260507140000 | 27 | 74 | 0.0 | 3.2 | 0.00 | 0.00 | 0.00 | 78 | 998.7 |
| 20260507135559 | 27 | 40 | 0.0 | 4.8 | 0.00 | 0.00 | 0.00 | 78 | 998.7 |
| 20260507135059 | 27 | 44 | 1.6 | 4.8 | 0.00 | 0.00 | 0.00 | 77 | 998.6 |
| 20260507134612 | 27 | 49 | 0.0 | 3.2 | 0.00 | 0.00 | 0.00 | 78 | 998.5 |
| 20260507134100 | 27 | 53 | 0.0 | 3.2 | 0.00 | 0.00 | 0.00 | 79 | 998.3 |
| 20260507133559 | 27 | 65 | 0.0 | 3.2 | 0.00 | 0.00 | 0.00 | 79 | 998.3 |
| 20260507133110 | 27 | 56 | 0.0 | 3.2 | 0.00 | 0.00 | 0.00 | 80 | 998.3 |
| 20260507132601 | 27 | 86 | 0.0 | 0.0 | 0.00 | 0.00 | 0.00 | 80 | 998.2 |
| 20260507132100 | 26 | 105 | 0.0 | 0.0 | 0.00 | 0.00 | 0.00 | 82 | 998.0 |
| 20260507131614 | 26 | 287 | 0.0 | 0.0 | 0.00 | 0.00 | 0.00 | 82 | 997.9 |
| 20260507131100 | 26 | 287 | 0.0 | 0.0 | 0.00 | 0.00 | 0.00 | 83 | 997.9 |
| 20260507130600 | 26 | 287 | 0.0 | 0.0 | 0.00 | 0.00 | 0.00 | 83 | 998.0 |
| 20260507130100 | 26 | 287 | 0.0 | 0.0 | 0.00 | 0.00 | 0.00 | 83 | 998.0 |
| 20260507130001 | 26 | 287 | 0.0 | 0.0 | 0.00 | 0.00 | 0.00 | 83 | 997.9 |
| 20260507125559 | 25 | 287 | 0.0 | 0.0 | 0.00 | 0.00 | 0.00 | 83 | 997.8 |
| 20260507125100 | 25 | 287 | 0.0 | 0.0 | 0.00 | 0.00 | 0.00 | 83 | 997.7 |
| 20260507124600 | 25 | 287 | 0.0 | 0.0 | 0.00 | 0.00 | 0.00 | 83 | 997.7 |
| 20260507124059 | 25 | 313 | 0.0 | 3.2 | 0.00 | 0.00 | 0.00 | 83 | 997.6 |
| 20260507123600 | 25 | 313 | 0.0 | 3.2 | 0.00 | 0.00 | 0.00 | 83 | 997.5 |
| 20260507123124 | 25 | 296 | 1.6 | 3.2 | 0.00 | 0.00 | 0.00 | 83 | 997.6 |
| 20260507122601 | 25 | 295 | 1.6 | 3.2 | 0.00 | 0.00 | 0.00 | 83 | 997.5 |
| 20260507122059 | 25 | 295 | 1.6 | 4.8 | 0.00 | 0.00 | 0.00 | 83 | 997.4 |
| 20260507121601 | 25 | 286 | 3.2 | 4.8 | 0.00 | 0.00 | 0.00 | 83 | 997.2 |
| 20260507121100 | 25 | 294 | 3.2 | 4.8 | 0.00 | 0.00 | 0.00 | 83 | 997.3 |
| 20260507120559 | 25 | 281 | 1.6 | 4.8 | 0.00 | 0.00 | 0.00 | 83 | 997.2 |
| 20260507120059 | 25 | 281 | 1.6 | 4.8 | 0.00 | 0.00 | 0.00 | 83 | 997.1 |
| 20260507120001 | 25 | 307 | 1.6 | 4.8 | 0.00 | 0.00 | 0.00 | 83 | 997.1 |
| 20260507115600 | 25 | 298 | 1.6 | 4.8 | 0.00 | 0.00 | 0.00 | 83 | 997.0 |
| 20260507115059 | 25 | 294 | 1.6 | 4.8 | 0.00 | 0.00 | 0.00 | 83 | 996.9 |
| 20260507114601 | 25 | 282 | 3.2 | 6.4 | 0.00 | 0.00 | 0.00 | 83 | 997.0 |
| 20260507114100 | 25 | 288 | 3.2 | 6.4 | 0.00 | 0.00 | 0.00 | 83 | 997.0 |
| 20260507113600 | 25 | 283 | 1.6 | 3.2 | 0.00 | 0.00 | 0.00 | 83 | 996.9 |
| 20260507113059 | 25 | 284 | 0.0 | 3.2 | 0.00 | 0.00 | 0.00 | 83 | 996.9 |
| 20260507112559 | 25 | 289 | 0.0 | 0.0 | 0.00 | 0.00 | 0.00 | 83 | 996.8 |
| 20260507112100 | 25 | 294 | 0.0 | 0.0 | 0.00 | 0.00 | 0.00 | 83 | 996.8 |
| 20260507111600 | 25 | 290 | 0.0 | 0.0 | 0.00 | 0.00 | 0.00 | 82 | 996.8 |
| 20260507111100 | 25 | 279 | 0.0 | 0.0 | 0.00 | 0.00 | 0.00 | 82 | 996.7 |
| 20260507110600 | 25 | 294 | 0.0 | 0.0 | 0.00 | 0.00 | 0.00 | 81 | 996.6 |
| 20260507110100 | 25 | 301 | 0.0 | 0.0 | 0.00 | 0.00 | 0.00 | 81 | 996.7 |
| 20260507105601 | 25 | 301 | 0.0 | 0.0 | 0.00 | 0.00 | 0.00 | 80 | 996.5 |
| 20260507105059 | 25 | 296 | 0.0 | 0.0 | 0.00 | 0.00 | 0.00 | 80 | 996.4 |
| 20260507104605 | 25 | 292 | 0.0 | 0.0 | 0.00 | 0.00 | 0.00 | 80 | 996.5 |
| 20260507104105 | 25 | 269 | 0.0 | 0.0 | 0.00 | 0.00 | 0.00 | 79 | 996.4 |
| 20260507103602 | 26 | 294 | 0.0 | 0.0 | 0.00 | 0.00 | 0.00 | 79 | 996.3 |
| 20260507103059 | 26 | 300 | 0.0 | 0.0 | 0.00 | 0.00 | 0.00 | 79 | 996.3 |
| 20260507102600 | 26 | 305 | 0.0 | 0.0 | 0.00 | 0.00 | 0.00 | 80 | 996.3 |
| 20260507102105 | 26 | 302 | 0.0 | 0.0 | 0.00 | 0.00 | 0.00 | 80 | 996.2 |
| 20260507101602 | 26 | 281 | 0.0 | 3.2 | 0.00 | 0.00 | 0.00 | 80 | 996.1 |
| 20260507101103 | 26 | 299 | 0.0 | 4.8 | 0.00 | 0.00 | 0.00 | 80 | 996.1 |
| 20260507100559 | 26 | 279 | 1.6 | 4.8 | 0.00 | 0.00 | 0.00 | 80 | 996.2 |
| 20260507100001 | 26 | 277 | 0.0 | 0.0 | 0.00 | 0.00 | 0.00 | 81 | 996.3 |
| 20260507095559 | 26 | 275 | 0.0 | 0.0 | 0.00 | 0.00 | 0.00 | 81 | 996.3 |
| 20260507095059 | 26 | 256 | 0.0 | 1.6 | 0.00 | 0.00 | 0.00 | 81 | 996.3 |
| 20260507094600 | 26 | 293 | 0.0 | 4.8 | 0.00 | 0.00 | 0.00 | 81 | 996.3 |
| 20260507094103 | 26 | 282 | 0.0 | 4.8 | 0.00 | 0.00 | 0.00 | 80 | 996.4 |
| 20260507093559 | 26 | 292 | 0.0 | 0.0 | 0.00 | 0.00 | 0.00 | 80 | 996.4 |
| 20260507093100 | 26 | 316 | 0.0 | 3.2 | 0.00 | 0.00 | 0.00 | 80 | 996.4 |
| 20260507092559 | 26 | 297 | 0.0 | 3.2 | 0.00 | 0.00 | 0.00 | 80 | 996.5 |
| 20260507092101 | 26 | 284 | 0.0 | 0.0 | 0.00 | 0.00 | 0.00 | 79 | 996.4 |
| 20260507091559 | 26 | 285 | 0.0 | 0.0 | 0.00 | 0.00 | 0.00 | 80 | 996.4 |
| 20260507091102 | 26 | 281 | 0.0 | 0.0 | 0.00 | 0.00 | 0.00 | 80 | 996.5 |
| 20260507090600 | 26 | 286 | 0.0 | 0.0 | 0.00 | 0.00 | 0.00 | 80 | 996.5 |
| 20260507090104 | 26 | 284 | 0.0 | 0.0 | 0.00 | 0.00 | 0.00 | 80 | 996.5 |
| 20260507085559 | 26 | 298 | 0.0 | 0.0 | 0.00 | 0.00 | 0.00 | 81 | 996.5 |
| 20260507085059 | 26 | 285 | 0.0 | 0.0 | 0.00 | 0.00 | 0.00 | 81 | 996.6 |
| 20260507084600 | 26 | 301 | 0.0 | 0.0 | 0.00 | 0.00 | 0.00 | 82 | 996.8 |
| 20260507084059 | 26 | 278 | 0.0 | 1.6 | 0.00 | 0.00 | 0.00 | 82 | 996.7 |
| 20260507083603 | 26 | 267 | 0.0 | 1.6 | 0.00 | 0.00 | 0.00 | 82 | 996.8 |
| 20260507083100 | 26 | 284 | 0.0 | 1.6 | 0.00 | 0.00 | 0.00 | 81 | 997.0 |
| 20260507082559 | 26 | 285 | 0.0 | 3.2 | 0.00 | 0.00 | 0.00 | 81 | 996.9 |
| 20260507082100 | 26 | 278 | 1.6 | 3.2 | 0.00 | 0.00 | 0.00 | 81 | 997.0 |
| 20260507081602 | 26 | 306 | 1.6 | 3.2 | 0.00 | 0.00 | 0.00 | 82 | 996.9 |
| 20260507081104 | 26 | 306 | 0.0 | 3.2 | 0.00 | 0.00 | 0.00 | 82 | 997.1 |
| 20260507080601 | 26 | 289 | 0.0 | 3.2 | 0.00 | 0.00 | 0.00 | 83 | 997.2 |
| 20260507080120 | 26 | 291 | 1.6 | 3.2 | 0.00 | 0.00 | 0.00 | 84 | 997.3 |
| 20260507075602 | 26 | 284 | 0.0 | 3.2 | 0.00 | 0.00 | 0.00 | 84 | 997.5 |
| 20260507075101 | 26 | 321 | 0.0 | 3.2 | 0.00 | 0.00 | 0.00 | 85 | 997.5 |
| 20260507074600 | 26 | 275 | 0.0 | 3.2 | 0.00 | 0.00 | 0.00 | 84 | 997.6 |
| 20260507074501 | 26 | 287 | 0.0 | 3.2 | 0.00 | 0.00 | 0.00 | 84 | 997.5 |
| 20260507074100 | 26 | 273 | 0.0 | 3.2 | 0.00 | 0.00 | 0.00 | 85 | 997.6 |
| 20260507073603 | 26 | 277 | 0.0 | 3.2 | 0.00 | 0.00 | 0.00 | 84 | 997.7 |
| 20260507073059 | 26 | 265 | 0.0 | 3.2 | 0.00 | 0.00 | 0.00 | 85 | 997.8 |
| 20260507072602 | 26 | 288 | 0.0 | 3.2 | 0.00 | 0.00 | 0.00 | 85 | 997.8 |
| 20260507072059 | 26 | 284 | 1.6 | 3.2 | 0.00 | 0.00 | 0.00 | 85 | 997.9 |
| 20260507071605 | 26 | 257 | 0.0 | 3.2 | 0.00 | 0.00 | 0.00 | 85 | 998.0 |
| 20260507071059 | 26 | 257 | 0.0 | 3.2 | 0.00 | 0.00 | 0.00 | 85 | 998.0 |
| 20260507070559 | 26 | 281 | 0.0 | 3.2 | 0.00 | 0.00 | 0.00 | 85 | 998.1 |
| 20260507070106 | 26 | 289 | 1.6 | 4.8 | 0.00 | 0.00 | 0.00 | 85 | 998.2 |
| 20260507070002 | 26 | 306 | 1.6 | 4.8 | 0.00 | 0.00 | 0.00 | 85 | 998.2 |
| 20260507065501 | 26 | 275 | 1.6 | 4.8 | 0.00 | 0.00 | 0.00 | 85 | 998.4 |
| 20260507065001 | 26 | 270 | 0.0 | 3.2 | 0.00 | 0.00 | 0.00 | 85 | 998.5 |
| 20260507064503 | 26 | 275 | 0.0 | 0.0 | 0.00 | 0.00 | 0.00 | 84 | 998.7 |
| 20260507064001 | 27 | 278 | 0.0 | 0.0 | 0.00 | 0.00 | 0.00 | 84 | 998.8 |
| 20260507063502 | 27 | 278 | 0.0 | 0.0 | 0.00 | 0.00 | 0.00 | 83 | 998.8 |
| 20260507063001 | 27 | 278 | 0.0 | 0.0 | 0.00 | 0.00 | 0.00 | 83 | 998.9 |
| 20260507062502 | 27 | 316 | 0.0 | 0.0 | 0.00 | 0.00 | 0.00 | 83 | 999.0 |
| 20260507062001 | 27 | 58 | 0.0 | 0.0 | 0.00 | 0.00 | 0.00 | 83 | 999.0 |
| 20260507061502 | 27 | 42 | 0.0 | 0.0 | 0.00 | 0.00 | 0.00 | 82 | 999.1 |
| 20260507061004 | 27 | 59 | 0.0 | 0.0 | 0.00 | 0.00 | 0.00 | 82 | 999.1 |
| 20260507060502 | 27 | 59 | 0.0 | 0.0 | 0.00 | 0.00 | 0.00 | 82 | 999.3 |
| 20260507060005 | 27 | 59 | 0.0 | 0.0 | 0.00 | 0.00 | 0.00 | 82 | 999.3 |
| 20260507055503 | 27 | 59 | 0.0 | 0.0 | 0.00 | 0.00 | 0.00 | 82 | 999.3 |
| 20260507055002 | 27 | 59 | 0.0 | 0.0 | 0.00 | 0.00 | 0.00 | 82 | 999.2 |
| 20260507054504 | 27 | 79 | 0.0 | 0.0 | 0.00 | 0.00 | 0.00 | 81 | 999.3 |
| 20260507054002 | 27 | 87 | 0.0 | 0.0 | 0.00 | 0.00 | 0.00 | 82 | 999.2 |
| 20260507053501 | 27 | 83 | 0.0 | 0.0 | 0.00 | 0.00 | 0.00 | 82 | 999.3 |
| 20260507053006 | 27 | 39 | 0.0 | 0.0 | 0.00 | 0.00 | 0.00 | 82 | 999.3 |
| 20260507052501 | 27 | 63 | 0.0 | 0.0 | 0.00 | 0.00 | 0.00 | 81 | 999.3 |
| 20260507052002 | 27 | 63 | 0.0 | 0.0 | 0.00 | 0.00 | 0.00 | 82 | 999.3 |
| 20260507051500 | 27 | 63 | 0.0 | 0.0 | 0.00 | 0.00 | 0.00 | 82 | 999.4 |
| 20260507051002 | 27 | 63 | 0.0 | 0.0 | 0.00 | 0.00 | 0.00 | 82 | 999.4 |
| 20260507050501 | 27 | 63 | 0.0 | 0.0 | 0.00 | 0.00 | 0.00 | 82 | 999.4 |
| 20260507045601 | 27 | 337 | 0.0 | 0.0 | 0.00 | 0.00 | 0.00 | 84 | 999.4 |
| 20260507045001 | 27 | 290 | 0.0 | 1.6 | 0.00 | 0.00 | 0.00 | 85 | 999.3 |
| 20260507044601 | 27 | 192 | 0.0 | 3.2 | 0.00 | 0.00 | 0.00 | 85 | 999.3 |
| 20260507044103 | 27 | 267 | 0.0 | 6.4 | 0.00 | 0.00 | 0.00 | 85 | 999.2 |
| 20260507043600 | 27 | 225 | 1.6 | 6.4 | 0.00 | 0.00 | 0.00 | 84 | 999.1 |
| 20260507043002 | 27 | 242 | 3.2 | 6.4 | 0.00 | 0.00 | 0.00 | 84 | 999.1 |
| 20260507042602 | 27 | 259 | 1.6 | 4.8 | 0.00 | 0.00 | 0.00 | 84 | 999.0 |
| 20260507042100 | 27 | 269 | 1.6 | 4.8 | 0.00 | 0.00 | 0.00 | 84 | 999.0 |
| 20260507042001 | 27 | 269 | 0.0 | 4.8 | 0.00 | 0.00 | 0.00 | 83 | 999.0 |
| 20260507041600 | 27 | 198 | 1.6 | 3.2 | 0.00 | 0.00 | 0.00 | 83 | 998.8 |
| 20260507041001 | 27 | 243 | 1.6 | 6.4 | 0.00 | 0.00 | 0.00 | 83 | 998.8 |
| 20260507040601 | 27 | 245 | 3.2 | 6.4 | 0.00 | 0.00 | 0.00 | 83 | 998.7 |
| 20260507040002 | 27 | 231 | 0.0 | 12.9 | 0.00 | 0.00 | 0.00 | 82 | 998.7 |
| 20260507035504 | 27 | 250 | 1.6 | 12.9 | 0.00 | 0.00 | 0.00 | 82 | 998.6 |
| 20260507035002 | 27 | 186 | 1.6 | 9.7 | 0.00 | 0.00 | 0.00 | 82 | 998.5 |
| 20260507034501 | 27 | 202 | 1.6 | 12.9 | 0.00 | 0.00 | 0.00 | 83 | 998.5 |
| 20260507034001 | 27 | 311 | 1.6 | 12.9 | 0.00 | 0.00 | 0.00 | 83 | 998.4 |
| 20260507033503 | 27 | 265 | 6.4 | 12.9 | 0.00 | 0.00 | 0.00 | 83 | 998.3 |
| 20260507033002 | 27 | 229 | 1.6 | 17.7 | 0.00 | 0.00 | 0.00 | 83 | 998.3 |
| 20260507032501 | 27 | 188 | 3.2 | 17.7 | 0.00 | 0.00 | 0.00 | 82 | 998.1 |
| 20260507032001 | 27 | 270 | 4.8 | 19.3 | 0.00 | 0.00 | 0.00 | 82 | 998.0 |
| 20260507031506 | 27 | 271 | 6.4 | 19.3 | 0.00 | 0.00 | 0.00 | 81 | 997.9 |
| 20260507031002 | 27 | 263 | 9.7 | 22.5 | 0.00 | 0.00 | 0.00 | 82 | 997.9 |
| 20260507030502 | 27 | 288 | 4.8 | 17.7 | 0.00 | 0.00 | 0.00 | 82 | 998.0 |
| 20260507030003 | 27 | 291 | 9.7 | 17.7 | 0.00 | 0.00 | 0.00 | 82 | 998.0 |
| 20260507025600 | 27 | 281 | 6.4 | 16.1 | 0.00 | 0.00 | 0.00 | 82 | 998.1 |
| 20260507025100 | 27 | 210 | 4.8 | 14.5 | 0.00 | 0.00 | 0.00 | 82 | 998.0 |
| 20260507024600 | 27 | 273 | 6.4 | 16.1 | 0.00 | 0.00 | 0.00 | 82 | 998.1 |
| 20260507024100 | 27 | 261 | 4.8 | 20.9 | 0.00 | 0.00 | 0.00 | 82 | 998.1 |
| 20260507023600 | 27 | 267 | 11.3 | 20.9 | 0.00 | 0.00 | 0.00 | 81 | 998.1 |
| 20260507023100 | 27 | 251 | 8.0 | 22.5 | 0.00 | 0.00 | 0.00 | 82 | 998.1 |
| 20260507022600 | 27 | 302 | 11.3 | 22.5 | 0.00 | 0.00 | 0.00 | 81 | 998.1 |
| 20260507022100 | 27 | 255 | 9.7 | 20.9 | 0.00 | 0.00 | 0.00 | 81 | 998.1 |
| 20260507022001 | 27 | 279 | 11.3 | 20.9 | 0.00 | 0.00 | 0.00 | 81 | 998.2 |
| 20260507021600 | 27 | 285 | 12.9 | 20.9 | 0.00 | 0.00 | 0.00 | 81 | 998.2 |
| 20260507021100 | 27 | 283 | 9.7 | 20.9 | 0.00 | 0.00 | 0.00 | 81 | 998.1 |
| 20260507020603 | 27 | 274 | 9.7 | 19.3 | 0.00 | 0.00 | 0.00 | 81 | 998.0 |
| 20260507020001 | 27 | 201 | 9.7 | 17.7 | 0.00 | 0.00 | 0.00 | 81 | 998.0 |
| 20260507015503 | 27 | 298 | 11.3 | 17.7 | 0.00 | 0.00 | 0.00 | 81 | 998.0 |
| 20260507015100 | 28 | 279 | 9.7 | 20.9 | 0.00 | 0.00 | 0.00 | 81 | 997.9 |
| 20260507015002 | 28 | 263 | 9.7 | 20.9 | 0.00 | 0.00 | 0.00 | 81 | 997.9 |
| 20260507014602 | 28 | 281 | 9.7 | 20.9 | 0.00 | 0.00 | 0.00 | 81 | 998.0 |
| 20260507014100 | 28 | 277 | 6.4 | 16.1 | 0.00 | 0.00 | 0.00 | 81 | 997.9 |
| 20260507013600 | 28 | 290 | 8.0 | 19.3 | 0.00 | 0.00 | 0.00 | 81 | 998.0 |
| 20260507013102 | 28 | 248 | 9.7 | 19.3 | 0.00 | 0.00 | 0.00 | 81 | 998.0 |
| 20260507012501 | 28 | 238 | 6.4 | 17.7 | 0.00 | 0.00 | 0.00 | 81 | 997.9 |
| 20260507012101 | 28 | 267 | 8.0 | 17.7 | 0.00 | 0.00 | 0.00 | 81 | 998.0 |
| 20260507011601 | 28 | 248 | 3.2 | 17.7 | 0.00 | 0.00 | 0.00 | 81 | 998.0 |
| 20260507011501 | 28 | 245 | 6.4 | 17.7 | 0.00 | 0.00 | 0.00 | 81 | 998.0 |
| 20260507011102 | 28 | 248 | 8.0 | 17.7 | 0.00 | 0.00 | 0.00 | 81 | 998.0 |
| 20260507010600 | 28 | 269 | 9.7 | 20.9 | 0.00 | 0.00 | 0.00 | 81 | 997.9 |
| 20260507010116 | 28 | 333 | 8.0 | 20.9 | 0.00 | 0.00 | 0.00 | 81 | 997.6 |
| 20260507010004 | 28 | 267 | 6.4 | 20.9 | 0.00 | 0.00 | 0.00 | 81 | 997.6 |
| 20260507005501 | 28 | 296 | 9.7 | 20.9 | 0.00 | 0.00 | 0.00 | 81 | 997.6 |
| 20260507005004 | 28 | 265 | 8.0 | 17.7 | 0.00 | 0.00 | 0.00 | 80 | 997.5 |
| 20260507004501 | 28 | 298 | 6.4 | 17.7 | 0.00 | 0.00 | 0.00 | 81 | 997.3 |
| 20260507004001 | 28 | 271 | 3.2 | 17.7 | 0.00 | 0.00 | 0.00 | 81 | 997.2 |
| 20260507003501 | 28 | 208 | 4.8 | 17.7 | 0.00 | 0.00 | 0.00 | 81 | 997.2 |
| 20260507003000 | 28 | 261 | 8.0 | 19.3 | 0.00 | 0.00 | 0.00 | 80 | 997.2 |
| 20260507002502 | 28 | 234 | 6.4 | 27.4 | 0.00 | 0.00 | 0.00 | 80 | 997.1 |
| 20260507002002 | 28 | 263 | 8.0 | 27.4 | 0.00 | 0.00 | 0.00 | 80 | 997.1 |
| 20260507001501 | 28 | 261 | 6.4 | 20.9 | 0.00 | 0.00 | 0.00 | 80 | 997.1 |
| 20260507001001 | 28 | 192 | 9.7 | 20.9 | 0.00 | 0.00 | 0.00 | 80 | 997.0 |
| 20260507000502 | 28 | 228 | 4.8 | 20.9 | 0.00 | 0.00 | 0.00 | 80 | 996.8 |
| 20260507000002 | 28 | 178 | 6.4 | 29.0 | 0.00 | 0.00 | 0.00 | 80 | 996.9 |
| 20260506235601 | 28 | 222 | 8.0 | 29.0 | 0.00 | 0.00 | 0.00 | 80 | 996.8 |
| 20260506235103 | 28 | 216 | 8.0 | 25.7 | 0.00 | 0.00 | 0.00 | 80 | 996.6 |
| 20260506234601 | 28 | 225 | 11.3 | 25.7 | 0.00 | 0.00 | 0.00 | 80 | 996.4 |
| 20260506234100 | 28 | 199 | 9.7 | 20.9 | 0.00 | 0.00 | 0.00 | 80 | 996.3 |
| 20260506233601 | 28 | 306 | 9.7 | 25.7 | 0.00 | 0.00 | 0.00 | 80 | 996.4 |
| 20260506233503 | 28 | 291 | 12.9 | 25.7 | 0.00 | 0.00 | 0.00 | 80 | 996.5 |
| 20260506233100 | 28 | 203 | 11.3 | 25.7 | 0.00 | 0.00 | 0.00 | 79 | 996.5 |
| 20260506232603 | 28 | 265 | 12.9 | 25.7 | 0.00 | 0.00 | 0.00 | 79 | 996.5 |
| 20260506232100 | 28 | 284 | 12.9 | 25.7 | 0.00 | 0.00 | 0.00 | 78 | 996.5 |
| 20260506232000 | 29 | 238 | 14.5 | 25.7 | 0.00 | 0.00 | 0.00 | 78 | 996.5 |
| 20260506231612 | 29 | 233 | 6.4 | 25.7 | 0.00 | 0.00 | 0.00 | 77 | 996.4 |
| 20260506231501 | 29 | 248 | 4.8 | 25.7 | 0.00 | 0.00 | 0.00 | 77 | 996.5 |
| 20260506231059 | 29 | 227 | 8.0 | 20.9 | 0.00 | 0.00 | 0.00 | 77 | 996.4 |
| 20260506230600 | 29 | 289 | 11.3 | 24.1 | 0.00 | 0.00 | 0.00 | 76 | 996.3 |
| 20260506230124 | 29 | 263 | 6.4 | 20.9 | 0.00 | 0.00 | 0.00 | 76 | 996.3 |
| 20260506225600 | 29 | 263 | 9.7 | 22.5 | 0.00 | 0.00 | 0.00 | 76 | 996.4 |
| 20260506225001 | 29 | 229 | 6.4 | 24.1 | 0.00 | 0.00 | 0.00 | 76 | 996.4 |
| 20260506224603 | 29 | 231 | 9.7 | 37.0 | 0.00 | 0.00 | 0.00 | 77 | 996.4 |
| 20260506224101 | 29 | 250 | 14.5 | 37.0 | 0.00 | 0.00 | 0.00 | 77 | 996.3 |
| 20260506223600 | 29 | 286 | 11.3 | 24.1 | 0.00 | 0.00 | 0.00 | 77 | 996.3 |
| 20260506223101 | 30 | 292 | 11.3 | 22.5 | 0.00 | 0.00 | 0.00 | 76 | 996.3 |
| 20260506222600 | 30 | 298 | 11.3 | 24.1 | 0.00 | 0.00 | 0.00 | 76 | 996.4 |
| 20260506222100 | 30 | 264 | 14.5 | 29.0 | 0.00 | 0.00 | 0.00 | 76 | 996.3 |
| 20260506221631 | 30 | 215 | 11.3 | 29.0 | 0.00 | 0.00 | 0.00 | 75 | 996.3 |
| 20260506221000 | 30 | 254 | 8.0 | 24.1 | 0.00 | 0.00 | 0.00 | 75 | 996.3 |
| 20260506220600 | 30 | 275 | 12.9 | 24.1 | 0.00 | 0.00 | 0.00 | 74 | 996.2 |
| 20260506220132 | 30 | 285 | 11.3 | 32.2 | 0.00 | 0.00 | 0.00 | 74 | 996.2 |
| 20260506220004 | 30 | 307 | 9.7 | 32.2 | 0.00 | 0.00 | 0.00 | 75 | 996.2 |
| 20260506215600 | 30 | 269 | 16.1 | 32.2 | 0.00 | 0.00 | 0.00 | 75 | 996.2 |
| 20260506215100 | 30 | 232 | 16.1 | 33.8 | 0.00 | 0.00 | 0.00 | 75 | 996.3 |
| 20260506214601 | 30 | 235 | 12.9 | 33.8 | 0.00 | 0.00 | 0.00 | 74 | 996.3 |
| 20260506214501 | 30 | 295 | 12.9 | 33.8 | 0.00 | 0.00 | 0.00 | 74 | 996.2 |
| 20260506214101 | 30 | 257 | 12.9 | 27.4 | 0.00 | 0.00 | 0.00 | 72 | 996.3 |
| 20260506213600 | 30 | 251 | 12.9 | 25.7 | 0.00 | 0.00 | 0.00 | 72 | 996.3 |
| 20260506213001 | 30 | 212 | 12.9 | 30.6 | 0.00 | 0.00 | 0.00 | 72 | 996.2 |
| 20260506212601 | 30 | 221 | 14.5 | 29.0 | 0.00 | 0.00 | 0.00 | 72 | 996.2 |
| 20260506212502 | 30 | 270 | 14.5 | 29.0 | 0.00 | 0.00 | 0.00 | 72 | 996.2 |
| 20260506212001 | 30 | 217 | 14.5 | 29.0 | 0.00 | 0.00 | 0.00 | 71 | 996.2 |
| 20260506211601 | 30 | 209 | 16.1 | 29.0 | 0.00 | 0.00 | 0.00 | 74 | 996.3 |
| 20260506211100 | 30 | 252 | 17.7 | 25.7 | 0.00 | 0.00 | 0.00 | 74 | 996.2 |
| 20260506211001 | 30 | 208 | 16.1 | 27.4 | 0.00 | 0.00 | 0.00 | 74 | 996.4 |
| 20260506210601 | 30 | 279 | 16.1 | 40.2 | 0.00 | 0.00 | 0.00 | 75 | 996.5 |
| 20260506210106 | 30 | 205 | 19.3 | 40.2 | 0.00 | 0.00 | 0.00 | 76 | 996.3 |
| 20260506210002 | 30 | 209 | 22.5 | 40.2 | 0.00 | 0.00 | 0.00 | 76 | 996.5 |
| 20260506205600 | 30 | 252 | 16.1 | 35.4 | 0.00 | 0.00 | 0.00 | 76 | 996.5 |
| 20260506205102 | 30 | 246 | 20.9 | 35.4 | 0.00 | 0.00 | 0.00 | 76 | 996.4 |
| 20260506204608 | 30 | 270 | 14.5 | 35.4 | 0.00 | 0.00 | 0.00 | 76 | 996.5 |
| 20260506204100 | 30 | 267 | 17.7 | 37.0 | 0.00 | 0.00 | 0.00 | 76 | 996.3 |
| 20260506203501 | 30 | 292 | 19.3 | 33.8 | 0.00 | 0.00 | 0.00 | 76 | 996.6 |
| 20260506203100 | 30 | 228 | 14.5 | 33.8 | 0.00 | 0.00 | 0.00 | 76 | 996.5 |
| 20260506202600 | 30 | 229 | 19.3 | 33.8 | 0.00 | 0.00 | 0.00 | 76 | 996.6 |
| 20260506202001 | 30 | 267 | 17.7 | 30.6 | 0.00 | 0.00 | 0.00 | 74 | 996.9 |
| 20260506201600 | 30 | 240 | 19.3 | 30.6 | 0.00 | 0.00 | 0.00 | 73 | 996.8 |
| 20260506201059 | 30 | 235 | 19.3 | 30.6 | 0.00 | 0.00 | 0.00 | 73 | 996.8 |
| 20260506200603 | 30 | 294 | 17.7 | 29.0 | 0.00 | 0.00 | 0.00 | 71 | 996.9 |
| 20260506200100 | 30 | 234 | 12.9 | 30.6 | 0.00 | 0.00 | 0.00 | 72 | 996.9 |
| 20260506200003 | 30 | 217 | 16.1 | 30.6 | 0.00 | 0.00 | 0.00 | 73 | 996.9 |
| 20260506195600 | 30 | 218 | 16.1 | 30.6 | 0.00 | 0.00 | 0.00 | 72 | 997.1 |
| 20260506195101 | 30 | 262 | 16.1 | 32.2 | 0.00 | 0.00 | 0.00 | 73 | 997.2 |
| 20260506194501 | 30 | 241 | 17.7 | 30.6 | 0.00 | 0.00 | 0.00 | 71 | 997.1 |
| 20260506194100 | 31 | 248 | 12.9 | 29.0 | 0.00 | 0.00 | 0.00 | 70 | 997.2 |
| 20260506194000 | 31 | 206 | 12.9 | 29.0 | 0.00 | 0.00 | 0.00 | 70 | 997.2 |
| 20260506193501 | 31 | 272 | 12.9 | 25.7 | 0.00 | 0.00 | 0.00 | 69 | 997.3 |
| 20260506193116 | 31 | 246 | 11.3 | 24.1 | 0.00 | 0.00 | 0.00 | 69 | 997.4 |